Location: Unspecified
(0.0000°N, 0.0000°E)
Time: 07:19:43
(UTC+00:00)

N. Korean satellite - Visible Passes

Search period start: 17 February 2020 00:00
Search period end: 27 February 2020 00:00
Orbit: 456 x 506 km, 97.2° (Epoch: 17 February)

Date Brightness Start Highest point End Pass type
(mag) Time Alt. Az. Time Alt. Az. Time Alt. Az.
17 Feb 6.5 05:29:37 10° N 05:33:17 72° W 05:36:56 10° SSW visible
18 Feb 8.2 05:04:23 10° NNE 05:07:49 38° E 05:11:14 10° S visible
19 Feb 9.9 04:40:10 10° ENE 04:42:21 15° E 04:44:31 10° SE visible
20 Feb 7.2 05:46:38 10° NNW 05:50:01 35° W 05:53:21 10° SW visible
21 Feb 6.7 05:20:54 10° NNE 05:24:32 79° E 05:28:09 10° S visible
22 Feb 8.8 04:55:55 10° NE 04:59:04 28° E 05:02:11 10° SSE visible
23 Feb 10.3 04:32:35 10° E 04:33:35 11° E 04:34:34 10° ESE visible
24 Feb 6.7 05:37:42 10° N 05:41:14 50° W 05:44:44 10° SSW visible
25 Feb 7.4 05:12:13 10° NNE 05:15:46 54° ESE 05:19:16 10° S visible
26 Feb 9.4 04:47:33 10° NE 04:50:16 20° E 04:52:57 10° SSE visible
